Zurück zum Katalog

STARLINK-2457

AktivKommunikationVLEO
NORAD 48321·PAYLOAD·🇺🇸 United States

Gestartet Apr 29, 2021 von Cape Canaveral Space Force Station

Loading…

Nächste Überflüge (nächste 24 Stunden)

TLE

AktuellSource: CelesTrak SupGP

Epoche: Sep 14, 2026, 21:28 UTC

1 48321C 21036AX  26257.89493056  .00013047  00000+0  41950-3 0  2579
2 48321  53.1587 300.5497 0001357  77.3133 163.7378 15.31700523    10

Verfolge STARLINK-2457 in Echtzeit mit AllMySat

Download on the App Store